Bookmark and Share
Track history (hours):
 

Asolare

Last reported at 2014-Apr-17 22:24 UTC. Time now 2014-Apr-20 21:07 UTC.
Position N 18°19' W 063°18'.

Length 47 m; draft 4.9 m.

Type: Sailing vessel. MMSI: 310413000.

NotesDate/timePositionNaut miles runAvg speedWind from/ knotsBaromVisibWave heightAir tempDewpointWater temp
2014-Apr-17 22:24N 18°19' W 063°18'1012.1
2014-Apr-17 21:33N 18°10' W 063°13'7 6.6
2014-Apr-17 20:33N 18°04' W 063°10'5 4.3
2014-Apr-17 19:27N 18°02' W 063°05'0 0.0
2014-Apr-17 18:09N 18°02' W 063°05'0 0.0
2014-Apr-17 17:27N 18°02' W 063°05'0 0.0
2014-Apr-17 16:27N 18°02' W 063°05'0 0.0
2014-Apr-17 15:27N 18°02' W 063°05'0 0.0
2014-Apr-17 13:33N 18°02' W 063°05'0 0.0
2014-Apr-17 12:15N 18°02' W 063°05'0 0.0
2014-Apr-17 11:33N 18°02' W 063°05'0 0.0
2014-Apr-17 10:21N 18°02' W 063°05'0 0.0
2014-Apr-17 09:33N 18°02' W 063°05'0 0.0
2014-Apr-17 08:30N 18°02' W 063°05'0 0.0
2014-Apr-17 07:18N 18°02' W 063°05'0 0.0
2014-Apr-17 06:30N 18°02' W 063°05'0 0.0
2014-Apr-17 05:27N 18°02' W 063°05'0 0.0
2014-Apr-17 04:29N 18°02' W 063°05'0 0.0
2014-Apr-17 03:17N 18°02' W 063°05'0 0.0
2014-Apr-17 02:08N 18°02' W 063°05'0 0.0
2014-Apr-17 01:24N 18°02' W 063°05'0 0.0
2014-Apr-17 00:26N 18°02' W 063°05'0 0.0
2014-Apr-16 23:32N 18°02' W 063°05'0 0.0
2014-Apr-16 22:33N 18°02' W 063°05'0 0.0
2014-Apr-16 21:23N 18°02' W 063°05'0 0.0
2014-Apr-16 20:23N 18°02' W 063°05'0 0.0
2014-Apr-16 19:33N 18°02' W 063°05'0 0.0
2014-Apr-16 18:29N 18°02' W 063°05'0 0.0
2014-Apr-16 17:32N 18°02' W 063°05'0 0.0
2014-Apr-16 16:29N 18°02' W 063°05'0 0.0
2014-Apr-16 15:30N 18°02' W 063°05'0 0.0
2014-Apr-16 14:29N 18°02' W 063°05'0 0.0
2014-Apr-16 13:20N 18°02' W 063°05'0 0.0
2014-Apr-16 12:26N 18°02' W 063°05'0 0.0
2014-Apr-16 10:26N 18°02' W 063°05'0 0.0
2014-Apr-16 09:23N 18°02' W 063°05'0 0.0
2014-Apr-16 08:27N 18°02' W 063°05'0 0.0
2014-Apr-16 07:32N 18°02' W 063°05'0 0.0
2014-Apr-16 06:05N 18°02' W 063°05'0 0.0
2014-Apr-16 05:32N 18°02' W 063°05'0 0.0
2014-Apr-16 04:33N 18°02' W 063°05'0 0.0
2014-Apr-16 03:32N 18°02' W 063°05'0 0.0
2014-Apr-16 02:32N 18°02' W 063°05'0 0.0
2014-Apr-16 01:29N 18°02' W 063°05'0 0.0
2014-Apr-16 00:32N 18°02' W 063°05'0 0.0
2014-Apr-15 23:29N 18°02' W 063°05'0 0.0
2014-Apr-15 21:20N 18°02' W 063°05'0 0.0
2014-Apr-15 20:29N 18°02' W 063°05'0 0.0
2014-Apr-15 19:26N 18°02' W 063°05'0 0.0
2014-Apr-15 18:05N 18°02' W 063°05'0 0.0
2014-Apr-15 17:27N 18°02' W 063°05'0 0.0
2014-Apr-15 16:23N 18°02' W 063°05'0 0.0
2014-Apr-15 15:23N 18°02' W 063°05'0 0.0
2014-Apr-15 12:33N 18°02' W 063°05'0 0.0
2014-Apr-15 03:29N 18°02' W 063°05'0 0.0
2014-Apr-14 20:32N 18°02' W 063°05'0 0.0
2014-Apr-14 16:29N 18°02' W 063°05'0 0.0
2014-Apr-14 05:32N 18°02' W 063°05'0 0.0
2014-Apr-13 22:29N 18°02' W 063°05'0 0.0
2014-Apr-13 21:23N 18°02' W 063°05'1 0.4
2014-Apr-13 19:33N 18°02' W 063°06'0 0.0
2014-Apr-13 17:24N 18°02' W 063°06'0 0.0
2014-Apr-13 15:33N 18°02' W 063°06'0 0.0
2014-Apr-13 13:33N 18°02' W 063°06'0 0.0
2014-Apr-13 12:30N 18°02' W 063°06'0 0.0
2014-Apr-13 11:30N 18°02' W 063°06'0 0.0
2014-Apr-13 09:18N 18°02' W 063°06'0 0.0
2014-Apr-13 08:30N 18°02' W 063°06'0 0.0
2014-Apr-13 07:30N 18°02' W 063°06'0 0.0
2014-Apr-13 03:24N 18°02' W 063°06'0 0.0
2014-Apr-13 00:15N 18°02' W 063°06'0 0.0
2014-Apr-12 23:06N 18°02' W 063°06'0 0.0
2014-Apr-12 22:33N 18°02' W 063°06'0 0.3
2014-Apr-12 21:09N 18°02' W 063°07'1 1.5
2014-Apr-12 20:21N 18°01' W 063°06'94 7.7
2014-Apr-12 08:05N 17°01' W 061°50'0 0.0
2014-Apr-12 07:29N 17°01' W 061°50'0 0.0
2014-Apr-12 06:33N 17°01' W 061°50'0 0.0
2014-Apr-12 05:33N 17°01' W 061°50'0 0.0
2014-Apr-12 04:33N 17°01' W 061°50'0 0.0
2014-Apr-12 03:33N 17°01' W 061°50'0 0.0
2014-Apr-12 02:33N 17°01' W 061°50'0 0.0
2014-Apr-12 01:33N 17°00' W 061°50'0 0.0
2014-Apr-12 00:33N 17°01' W 061°50'0 0.0
2014-Apr-11 23:33N 17°01' W 061°50'0 0.0
2014-Apr-11 22:33N 17°01' W 061°50'0 0.0
2014-Apr-11 21:33N 17°01' W 061°50'4 3.7
2014-Apr-11 20:32N 17°01' W 061°46'0 0.0
2014-Apr-11 19:32N 17°01' W 061°46'0 0.0
2014-Apr-11 18:32N 17°01' W 061°46'0 0.0
2014-Apr-11 17:32N 17°01' W 061°46'0 0.0
2014-Apr-11 16:33N 17°01' W 061°46'1 0.5
2014-Apr-11 15:31N 17°00' W 061°46'0 0.0
2014-Apr-11 14:31N 17°00' W 061°46'0 0.0
2014-Apr-11 13:31N 17°00' W 061°46'0 0.0
2014-Apr-11 12:31N 17°00' W 061°46'0 0.0
2014-Apr-11 11:31N 17°00' W 061°46'0 0.0
2014-Apr-11 10:31N 17°00' W 061°46'0 0.0
2014-Apr-11 09:31N 17°00' W 061°46'0 0.0
2014-Apr-11 08:31N 17°00' W 061°46'0 0.0
2014-Apr-11 07:31N 17°00' W 061°46'0 0.0
2014-Apr-11 06:31N 17°00' W 061°46'0 0.0
2014-Apr-11 05:31N 17°00' W 061°46'0 0.0
2014-Apr-11 04:31N 17°00' W 061°46'0 0.0
2014-Apr-11 03:31N 17°00' W 061°46'0 0.0
2014-Apr-11 02:31N 17°00' W 061°46'0 0.0
2014-Apr-11 01:28N 17°00' W 061°46'0 0.0
2014-Apr-11 00:31N 17°00' W 061°46'0 0.0
2014-Apr-10 23:31N 17°00' W 061°46'0 0.0
2014-Apr-10 22:31N 17°00' W 061°46'0 0.0
2014-Apr-10 21:31N 17°00' W 061°46'0 0.0
2014-Apr-10 20:31N 17°00' W 061°46'0 0.0
2014-Apr-10 19:31N 17°00' W 061°46'0 0.0
2014-Apr-10 18:31N 17°00' W 061°46'0 0.0
2014-Apr-10 17:31N 17°00' W 061°46'0 0.0
2014-Apr-10 16:31N 17°00' W 061°46'0 0.0
2014-Apr-10 15:31N 17°00' W 061°46'0 0.0
2014-Apr-10 14:31N 17°00' W 061°46'0 0.0
2014-Apr-10 13:31N 17°00' W 061°46'0 0.0
2014-Apr-10 12:31N 17°00' W 061°46'0 0.0
2014-Apr-10 11:31N 17°00' W 061°46'0 0.0
2014-Apr-10 10:31N 17°00' W 061°46'0 0.0
2014-Apr-10 09:31N 17°00' W 061°46'0 0.0
2014-Apr-10 08:31N 17°00' W 061°46'0 0.0
2014-Apr-10 07:31N 17°00' W 061°46'0 0.0
2014-Apr-10 06:31N 17°00' W 061°46'0 0.0
2014-Apr-10 05:31N 17°00' W 061°46'0 0.0
2014-Apr-10 04:31N 17°00' W 061°46'0 0.0
2014-Apr-10 03:31N 17°00' W 061°46'0 0.0
2014-Apr-10 02:31N 17°00' W 061°46'0 0.0
2014-Apr-10 01:31N 17°00' W 061°46'0 0.0
2014-Apr-10 00:31N 17°00' W 061°46'0 0.0
2014-Apr-09 23:31N 17°00' W 061°46'0 0.0
2014-Apr-09 22:31N 17°00' W 061°46'0 0.0
2014-Apr-09 21:31N 17°00' W 061°46'0 0.0
2014-Apr-09 20:31N 17°00' W 061°46'0 0.0
2014-Apr-09 19:31N 17°00' W 061°46'0 0.0
2014-Apr-09 18:31N 17°00' W 061°46'0 0.0
2014-Apr-09 17:31N 17°00' W 061°46'0 0.0
2014-Apr-09 16:31N 17°00' W 061°46'0 0.0
2014-Apr-09 15:31N 17°00' W 061°46'0 0.0
2014-Apr-09 14:31N 17°00' W 061°46'0 0.0
2014-Apr-09 13:31N 17°00' W 061°46'0 0.0
2014-Apr-09 12:31N 17°00' W 061°46'0 0.0
2014-Apr-09 11:31N 17°00' W 061°46'0 0.0
2014-Apr-09 10:31N 17°00' W 061°46'0 0.0
2014-Apr-09 09:31N 17°00' W 061°46'0 0.0
2014-Apr-09 08:31N 17°00' W 061°46'0 0.0
2014-Apr-09 07:31N 17°00' W 061°46'0 0.0
2014-Apr-09 06:31N 17°00' W 061°46'0 0.0
2014-Apr-09 05:31N 17°00' W 061°46'0 0.0
2014-Apr-09 04:31N 17°00' W 061°46'0 0.0
2014-Apr-09 03:31N 17°00' W 061°46'0 0.0
2014-Apr-09 02:31N 17°00' W 061°46'0 0.0
2014-Apr-09 01:31N 17°00' W 061°46'0 0.0
2014-Apr-09 00:31N 17°00' W 061°46'0 0.0
2014-Apr-08 23:31N 17°00' W 061°46'0 0.0
2014-Apr-08 22:31N 17°00' W 061°46'0 0.0
2014-Apr-08 21:31N 17°00' W 061°46'0 0.0
2014-Apr-08 20:31N 17°00' W 061°46'0 0.0
2014-Apr-08 19:31N 17°00' W 061°46'0 0.0
2014-Apr-08 18:31N 17°00' W 061°46'0 0.0
2014-Apr-08 17:31N 17°00' W 061°46'0 0.0
2014-Apr-08 16:31N 17°00' W 061°46'0 0.0
2014-Apr-08 15:31N 17°00' W 061°46'0 0.0
2014-Apr-08 14:33N 17°00' W 061°46'0 0.0
2014-Apr-08 13:34N 17°00' W 061°46'0 0.0
2014-Apr-08 12:34N 17°00' W 061°46'  

Dump ship's entire track history

sailing weather and tide predictions

Asolare — ZCDI3 — position and weather